星链-5132 (STARLINK-5132 )

导读

STARLINK-5132是美国SpaceX公司星链星座的卫星,于2022年10月5日发射,归属于SpaceX星链互联网卫星网络。星链项目旨在为全球提供高速低延迟宽带互联网服务,该卫星入轨后,进一步扩充了星链星座的卫星规模,推进了全球卫星互联网覆盖的建设进程。

基本信息
目录编号:
54007
目录名称:
STARLINK-5132
国际标识:
2022-125AV
轨道中心:
EARTH
卫星名称:
星链-5132
卫星全名:
星链-5132 (STARLINK-5132 )
卫星状态:
在轨 (已飞行1440 天)
发射日期:
2022-10-05 UTC
国别 :
美国 (US)
星等 :
--
该卫星已列入 空间交会检测服务 Space Conjunction Data Service (SCDS) ,当前飞行风险评估等级: 无高风险
轨道信息
数据来源 国际轨道数据 AOE轨道数据
星历时间 2026-09-14T06:01:44+0800
19小时前
查看轨道信息
2026-09-10T04:00:00+0800
4天前
查看轨道信息
半长轴 6917.91km 6917.919km
偏心率 0.000132 0.0001264
轨道倾角 53.159° 53.156°
近地点辐角 92.435° 88.956°
升交点赤经 88.153° 106.512°
平近点角 267.679° 32.626°
近地点 538.859km 538.907km
远地点 540.687km 540.657km
周期 95.438分钟 95.438分钟
每日圈数 15.088304 15.088276
详细信息
固有亮度:
5
最大亮度:
2.5
卫星平台:
Starlink v1.5
覆盖范围:
全球
运营商:
太空探索技术公司
运营商所在国:
美国
制造商(研发单位):
太空探索技术公司
制造商所在国:
美国
使用方式:
暂无
卫星简介
星链(Starlink)计划是由太空探索技术公司(SpaceX)提出的一个巨型低轨卫星互联网星座项目,计划在2019年至2024年间在太空搭建由约1.2万颗卫星组成的“星链”网络,其中1584颗将部署在地球上空550千米处的近地轨道,并从2020年开始工作。该卫星仍在工作。
2D轨道图
3D轨道图
轨道高度分析图
轨道倾角分析图
轨道综合分析图
查看轨道综合分析图
与全量物体交会距离演化趋势 订阅飞行安全评估服务
与全量物体交会风险概率演化趋势 订阅飞行安全评估服务